Temp
7 8 9 9 9 8 13 13 13 14 12 14 15 16 15 16 16 14 13 13 14 14 14 15 15 15 14 13 13 13 13 12 12 11 11 11 11 11 11 11 11 11 11 11
7 7 7 9 8 8 9 12 13 12 10 13 13 14 15 14 16 15 14 13 13 13 14 14 14 14 13 13 13 12 12 12 12 11 11 11 11 11 11 11 11 10 10 10
7 8 8 7 7 6 8 11 13 13 10 10 13 13 12 14 15 16 16 16 13 16 14 14 14 14 13 13 13 13 12 12 12 11 11 12 11 11 11 10 10 8 8 8
7 8 8 7 6 5 8 11 12 10 12 12 12 12 12 14 13 14 12 12 12 12 12 13 13 13 13 13 13 12 12 12 12 12 12 11 11 11 9 7 7 7 7 7
7 7 8 8 7 6 6 6 11 11 12 12 11 12 13 14 14 12 11 9 10 10 11 11 12 12 12 12 12 12 12 12 12 12 12 11 11 8 6 5 6 5 6 6
7 9 8 8 8 7 6 7 10 10 10 10 11 12 12 13 13 11 8 7 9 10 10 10 10 11 12 12 11 11 11 11 11 11 9 9 6 4 4 5 5 5 5 5
7 7 8 8 7 6 6 5 9 9 9 10 11 11 11 12 11 12 8 5 5 9 8 9 8 8 9 9 9 9 9 9 8 6 6 5 5 5 5 5 5 5 5 5
6 6 8 8 8 7 6 5 8 10 10 10 10 10 11 8 10 10 6 5 5 5 6 7 8 8 8 8 7 7 7 6 5 5 5 5 5 5 5 5 5 5 5 5
3 7 7 7 7 8 7 7 6 7 6 9 9 8 9 7 6 5 4 4 4 4 5 6 6 6 6 6 6 5 5 5 5 6 5 5 5 5 5 5 5 5 5 5
6 5 6 7 7 8 8 8 7 7 9 9 9 9 11 7 6 4 3 2 3 4 5 5 5 5 4 4 4 5 5 5 5 5 5 6 6 5 5 5 5 4 4 4
4 5 6 6 6 7 7 8 8 8 7 8 10 10 9 8 7 5 3 3 3 4 4 4 4 4 4 4 5 5 5 5 5 4 5 5 5 5 5 4 5 4 4 3
5 4 6 5 5 5 5 7 9 9 8 8 9 10 7 7 7 5 4 3 3 4 4 4 4 4 4 5 5 5 5 5 5 5 5 5 5 4 4 4 4 3 3 2
5 4 5 5 5 5 6 6 7 8 7 8 9 10 6 6 6 5 3 3 3 3 3 3 3 4 4 4 4 4 4 4 4 5 4 4 4 4 4 3 3 2 2 2
5 4 5 5 6 5 5 6 7 7 6 7 8 9 7 5 5 4 3 3 2 2 3 3 3 4 4 4 4 4 4 4 4 4 4 4 4 3 3 3 2 2 2 1
5 4 4 4 5 7 6 6 6 7 8 8 9 9 8 6 5 4 3 2 2 1 2 3 3 3 4 3 3 3 3 4 4 4 3 3 3 3 2 2 2 1 1 -0
3 4 4 4 5 5 7 7 6 6 6 7 7 8 8 7 6 4 3 2 2 2 3 2 3 3 3 4 4 4 4 4 4 4 3 3 3 3 2 2 1 1 0 -1
3 1 -0 0 3 3 2 5 6 6 7 7 7 9 8 6 4 4 4 3 2 3 4 3 4 4 4 4 4 4 4 4 4 3 3 3 2 2 2 1 1 0 -0 -1
3 3 3 -1 -2 4 5 6 5 6 6 6 7 8 9 8 8 8 6 6 4 4 5 4 3 4 4 4 4 3 3 3 3 3 2 2 2 2 1 1 0 -0 -1 -2
2 3 1 -0 3 3 6 6 5 5 6 5 6 6 8 7 7 7 7 7 8 8 7 6 6 6 4 4 3 3 3 2 3 2 2 2 2 1 1 0 -1 -2 -2 -3
1 2 3 1 3 1 5 6 6 6 4 5 6 5 6 7 6 5 9 8 7 6 6 6 6 5 4 4 3 2 2 2 2 2 2 2 1 0 -0 -1 -1 -2 -2 -3
1 3 0 1 -2 -1 2 5 6 3 6 5 6 5 5 5 7 8 10 9 7 7 6 5 5 5 4 4 4 3 2 2 2 1 1 1 0 -0 -1 -1 -2 -2 -3 -4
0 1 1 -4 -3 1 4 4 6 5 5 6 6 6 6 6 7 8 8 8 8 7 6 5 4 4 4 4 3 2 2 2 1 1 1 0 -0 -1 -1 -2 -2 -3 -4 -5
-0 1 0 1 2 4 5 5 6 6 7 6 7 7 7 6 6 7 7 7 6 5 5 4 3 3 3 3 2 1 3 2 1 1 0 -1 -1 -1 -2 -3 -4 -4 -5 -5
-0 1 -0 2 4 2 5 5 6 6 6 6 6 6 7 6 6 6 6 6 5 4 4 3 3 2 3 2 2 2 2 1 1 -0 -1 -1 -2 -2 -3 -3 -4 -4 -5 -6
-1 -1 -4 -2 1 4 6 6 6 7 6 6 6 6 6 6 5 5 5 5 5 4 3 3 3 2 2 2 2 2 1 0 -0 -1 -1 -2 -2 -3 -3 -4 -4 -5 -6 -7
-3 -3 -1 -1 3 3 4 5 5 6 6 6 5 5 5 5 4 5 5 4 4 4 3 2 2 2 2 2 2 1 0 -0 -1 -1 -2 -2 -2 -3 -4 -4 -5 -6 -7 -7
Height
1500 1501 1490 1489 1503 1499 1489 1492 1496 1499 1501 1506 1507 1510 1507 1508 1511 1513 1514 1518 1521 1526 1533 1537 1541 1546 1549 1552 1554 1556 1559 1562 1564 1565 1566 1567 1569 1570 1570 1570 1571 1571 1571 1571
1498 1493 1495 1493 1499 1503 1499 1487 1492 1497 1500 1503 1508 1509 1504 1508 1507 1509 1510 1513 1518 1523 1529 1533 1537 1541 1545 1547 1550 1554 1556 1559 1561 1563 1565 1566 1567 1567 1568 1568 1568 1569 1569 1569
1491 1485 1488 1495 1495 1505 1497 1483 1482 1490 1498 1502 1504 1510 1508 1503 1505 1508 1508 1509 1515 1519 1523 1529 1533 1538 1541 1544 1547 1551 1554 1556 1558 1560 1561 1562 1563 1563 1564 1564 1563 1563 1564 1565
1492 1485 1485 1495 1493 1506 1490 1478 1478 1486 1490 1498 1494 1505 1504 1502 1504 1503 1505 1507 1513 1516 1522 1525 1529 1535 1538 1542 1544 1549 1551 1553 1554 1556 1558 1557 1559 1559 1560 1563 1560 1562 1563 1565
1488 1485 1486 1485 1490 1499 1496 1488 1478 1480 1484 1490 1497 1504 1494 1497 1500 1504 1508 1508 1511 1515 1520 1522 1528 1532 1536 1539 1543 1546 1548 1550 1552 1553 1554 1554 1556 1556 1557 1561 1560 1568 1563 1566
1481 1478 1482 1486 1487 1493 1498 1483 1475 1479 1484 1488 1486 1489 1493 1492 1492 1500 1506 1511 1507 1512 1520 1521 1525 1529 1535 1539 1542 1544 1545 1547 1549 1551 1550 1549 1554 1555 1563 1560 1566 1565 1562 1565
1483 1481 1481 1480 1485 1490 1497 1496 1482 1483 1483 1479 1482 1493 1490 1486 1486 1486 1495 1506 1510 1506 1517 1520 1524 1528 1532 1535 1539 1542 1544 1545 1548 1551 1551 1553 1558 1554 1560 1559 1563 1562 1562 1562
1490 1493 1481 1481 1480 1488 1494 1501 1482 1473 1475 1481 1484 1491 1484 1488 1482 1481 1492 1501 1507 1510 1515 1519 1523 1527 1531 1534 1537 1540 1543 1546 1550 1553 1553 1557 1558 1559 1560 1561 1560 1564 1563 1562
1499 1486 1484 1481 1482 1482 1490 1495 1495 1489 1491 1479 1488 1492 1489 1491 1492 1493 1496 1501 1505 1513 1513 1519 1524 1527 1531 1535 1537 1541 1546 1548 1550 1552 1555 1555 1556 1559 1562 1563 1564 1564 1563 1560
1489 1491 1483 1480 1480 1483 1483 1486 1493 1492 1485 1483 1487 1487 1482 1489 1493 1498 1502 1503 1508 1510 1514 1519 1525 1528 1534 1536 1538 1542 1545 1549 1550 1553 1554 1555 1557 1560 1562 1562 1562 1562 1562 1560
1492 1490 1488 1487 1487 1483 1485 1483 1487 1489 1494 1494 1489 1486 1481 1481 1488 1495 1501 1503 1505 1510 1514 1519 1524 1530 1536 1538 1540 1542 1544 1547 1550 1552 1553 1556 1560 1561 1561 1561 1560 1560 1561 1559
1492 1494 1488 1490 1489 1489 1491 1486 1485 1485 1493 1496 1495 1487 1483 1485 1489 1493 1499 1504 1508 1510 1515 1521 1524 1529 1534 1537 1540 1542 1545 1546 1549 1552 1556 1557 1561 1561 1561 1561 1561 1560 1560 1559
1492 1491 1487 1490 1490 1491 1491 1491 1488 1488 1487 1492 1489 1487 1485 1486 1491 1496 1498 1503 1508 1511 1514 1521 1525 1529 1533 1536 1539 1541 1544 1547 1549 1552 1554 1557 1560 1560 1560 1559 1561 1560 1558 1558
1495 1491 1487 1484 1483 1487 1494 1490 1489 1488 1494 1494 1491 1486 1488 1491 1494 1498 1499 1501 1506 1509 1513 1520 1525 1528 1530 1535 1538 1540 1543 1546 1550 1553 1554 1555 1557 1559 1559 1559 1559 1558 1556 1554
1496 1497 1493 1493 1490 1488 1486 1487 1492 1490 1487 1490 1488 1485 1483 1485 1487 1493 1499 1502 1504 1507 1512 1517 1523 1526 1528 1532 1536 1539 1542 1546 1547 1552 1555 1555 1555 1556 1558 1557 1557 1555 1554 1553
1499 1497 1496 1497 1491 1489 1483 1486 1490 1492 1494 1493 1489 1487 1481 1481 1487 1493 1497 1500 1502 1504 1508 1514 1521 1525 1528 1530 1533 1537 1541 1544 1548 1549 1552 1554 1554 1555 1555 1555 1555 1554 1553 1551
1500 1503 1508 1514 1499 1500 1508 1489 1485 1487 1485 1483 1485 1481 1482 1486 1487 1489 1492 1494 1495 1500 1504 1510 1514 1522 1527 1529 1533 1537 1538 1543 1545 1549 1550 1551 1552 1550 1552 1553 1552 1551 1552 1550
1501 1499 1497 1516 1515 1503 1485 1480 1480 1483 1481 1480 1482 1487 1487 1485 1483 1484 1487 1488 1491 1497 1500 1504 1511 1518 1524 1528 1532 1535 1539 1540 1544 1546 1548 1549 1550 1549 1550 1550 1550 1551 1549 1546
1501 1500 1506 1517 1504 1502 1483 1483 1484 1485 1480 1477 1481 1482 1481 1481 1482 1482 1483 1483 1486 1490 1495 1500 1506 1514 1521 1526 1530 1532 1535 1539 1541 1544 1546 1547 1547 1548 1548 1548 1548 1547 1544 1543
1501 1500 1502 1509 1506 1521 1487 1481 1481 1480 1490 1476 1475 1476 1481 1483 1482 1482 1481 1482 1485 1489 1495 1498 1506 1513 1518 1523 1528 1530 1534 1538 1540 1543 1545 1545 1546 1545 1545 1544 1545 1543 1541 1539
1503 1499 1509 1507 1524 1505 1479 1477 1479 1496 1487 1476 1474 1474 1476 1478 1478 1479 1481 1482 1485 1488 1493 1499 1504 1509 1514 1520 1522 1526 1532 1537 1541 1542 1542 1542 1541 1541 1541 1542 1541 1539 1539 1538
1503 1504 1506 1523 1525 1508 1477 1479 1482 1479 1478 1477 1477 1477 1478 1480 1480 1482 1482 1483 1485 1489 1492 1497 1500 1506 1513 1517 1520 1524 1530 1535 1537 1538 1538 1537 1537 1538 1539 1537 1537 1536 1535 1533
1505 1494 1499 1498 1490 1478 1477 1477 1476 1476 1477 1477 1477 1477 1477 1477 1478 1479 1481 1482 1485 1488 1491 1495 1499 1505 1510 1515 1519 1523 1529 1531 1533 1534 1534 1534 1535 1536 1535 1534 1533 1532 1529 1527
1492 1490 1494 1489 1474 1474 1476 1477 1477 1477 1477 1478 1478 1477 1477 1476 1477 1478 1480 1481 1484 1488 1492 1496 1500 1504 1509 1513 1517 1522 1526 1528 1529 1531 1532 1532 1532 1532 1531 1530 1528 1526 1525 1523
1492 1491 1492 1489 1475 1474 1472 1473 1475 1475 1476 1476 1477 1478 1478 1478 1478 1479 1481 1483 1486 1490 1493 1496 1500 1504 1508 1512 1517 1520 1523 1525 1526 1528 1528 1528 1528 1527 1526 1525 1524 1522 1521 1519
1481 1479 1484 1483 1472 1472 1471 1470 1471 1472 1474 1475 1476 1477 1477 1477 1478 1479 1481 1484 1486 1489 1492 1495 1499 1503 1507 1511 1515 1518 1520 1522 1523 1524 1524 1525 1524 1523 1522 1521 1519 1518 1517 1515
Wind_Speed
8 6 11 26 18 18 16 19 12 16 3 12 12 15 7 17 19 22 26 31 32 31 28 24 22 23 19 17 20 18 20 17 19 21 19 20 19 18 18 17 16 16 15 14
5 11 3 3 6 11 23 22 27 5 6 6 14 11 2 3 7 21 28 26 28 28 30 30 30 29 26 26 24 24 22 20 20 21 21 20 20 20 20 19 17 15 13 9
14 2 12 2 9 9 20 23 23 14 4 3 13 6 5 5 6 9 21 26 25 32 38 30 30 29 27 26 26 25 25 24 24 25 26 26 25 24 20 17 15 11 9 9
8 8 9 3 5 3 9 10 14 14 17 10 7 9 10 16 6 4 12 24 27 31 34 32 32 30 28 28 26 26 27 25 27 28 28 29 27 26 18 15 12 13 13 10
6 11 11 8 8 1 8 23 18 13 19 13 8 4 5 16 15 6 9 23 29 32 33 32 30 30 28 26 25 25 24 24 24 24 27 27 24 18 17 18 17 10 9 6
6 6 4 5 5 7 11 13 10 7 5 8 8 11 8 8 11 9 12 13 33 32 30 29 29 27 25 22 20 19 18 15 16 20 19 19 19 18 15 15 8 6 8 10
3 1 3 9 5 3 1 6 2 3 3 2 14 9 3 3 5 11 20 20 23 35 29 26 24 22 22 19 17 16 14 15 14 14 16 17 17 17 11 6 3 6 8 7
1 2 2 5 2 5 4 2 3 2 4 5 12 6 2 4 5 26 26 27 26 26 27 23 22 20 18 17 17 16 17 20 21 17 16 12 10 6 5 3 2 2 1 3
2 3 0 2 2 6 7 0 5 3 2 4 4 1 2 6 8 14 23 25 24 23 20 19 19 18 21 24 24 23 24 21 15 11 8 6 3 2 4 5 2 1 1 3
2 3 2 2 4 1 3 8 1 3 3 3 3 1 3 7 9 10 13 17 20 20 18 20 22 26 28 29 28 24 19 14 11 9 7 9 9 7 6 4 2 2 4 5
2 2 3 2 2 2 2 2 4 4 1 2 2 4 2 8 10 13 14 21 25 25 25 27 30 32 31 28 25 21 16 13 9 10 11 10 6 6 4 2 1 2 4 5
3 1 2 2 1 3 2 2 3 3 3 2 1 3 4 1 8 18 18 21 22 22 26 30 33 33 31 26 22 18 15 12 13 11 9 8 6 4 3 1 1 2 4 5
1 3 2 3 2 2 1 1 1 0 3 4 4 3 4 8 10 16 23 24 23 25 29 33 32 32 29 25 22 19 15 13 14 12 10 7 6 4 2 1 2 3 4 6
2 1 2 1 1 3 4 2 2 2 2 2 3 3 2 5 8 13 20 26 25 26 31 33 32 31 28 25 21 16 15 15 12 10 9 7 6 4 3 2 3 5 6 7
3 3 3 2 5 1 1 2 3 2 1 3 3 3 5 11 12 20 23 26 24 27 33 36 34 31 29 24 19 15 17 14 12 10 9 7 6 4 3 3 5 6 7 7
5 0 2 1 4 5 2 4 6 5 3 4 3 5 1 5 15 19 25 25 24 28 34 35 33 31 28 23 17 19 18 15 13 11 10 8 6 4 4 5 6 7 8 9
4 1 2 3 3 4 4 6 7 5 4 4 4 4 3 3 11 23 29 29 27 30 33 38 36 33 28 22 18 22 18 16 14 13 11 9 7 5 5 7 8 9 10 11
2 0 1 2 3 1 5 3 4 6 3 7 2 4 3 6 16 19 21 26 27 28 30 36 38 34 28 20 22 21 20 17 16 14 11 9 7 7 8 8 10 11 11 11
1 2 1 2 2 4 2 2 4 5 6 9 11 6 1 2 4 4 14 19 20 22 24 29 35 32 29 24 27 25 22 19 17 14 11 9 8 10 10 10 11 11 12 13
3 1 1 2 2 5 5 1 1 4 3 2 1 6 10 7 2 3 6 13 17 17 22 26 34 35 31 26 26 23 20 19 16 13 12 11 11 10 10 11 12 13 14 15
1 2 4 1 1 7 7 3 0 5 4 1 2 4 10 4 6 4 6 10 13 16 20 22 30 32 29 26 24 23 21 19 15 16 12 12 11 10 11 12 13 14 15 15
5 4 3 2 3 6 6 4 5 3 3 3 4 4 1 14 6 6 8 8 14 19 20 21 24 32 29 25 25 25 22 17 18 14 14 13 10 11 12 13 14 15 15 15
2 5 3 6 5 0 8 2 5 4 2 2 4 6 6 7 11 12 11 12 16 18 19 19 23 29 29 26 24 21 18 20 16 14 14 11 11 12 13 13 14 15 15 17
4 4 2 1 4 7 13 11 7 7 5 4 5 6 7 8 7 9 11 13 14 16 17 17 22 27 27 25 20 17 18 16 15 15 13 12 12 12 13 14 15 16 17 18
4 4 4 5 10 15 19 14 14 16 15 13 10 8 8 8 8 10 10 12 13 13 15 14 16 21 21 19 19 19 19 17 15 14 13 12 13 13 14 15 16 17 17 19
8 7 4 5 5 3 4 5 9 16 18 15 12 10 8 6 7 9 9 9 10 12 13 14 15 16 18 18 18 18 16 14 14 13 13 13 14 15 16 16 17 17 19 20
Wind_Direction
198 210 212 215 246 318 225 208 200 201 215 180 199 207 216 185 190 183 187 181 183 185 180 186 191 199 197 199 190 185 185 200 199 206 198 203 211 215 221 229 240 249 255 264
224 223 23 201 241 289 286 213 208 199 158 199 192 217 227 280 173 186 188 189 182 170 183 187 186 190 194 193 198 196 190 195 200 207 206 217 220 223 228 233 233 240 247 249
246 265 144 65 47 305 289 220 195 197 146 42 152 198 172 260 257 175 199 197 190 173 175 180 183 190 193 192 189 196 196 199 200 200 209 214 221 222 215 211 206 185 194 178
251 184 153 172 89 13 297 220 204 155 169 182 218 196 203 217 241 150 148 157 170 171 173 172 176 180 182 186 189 194 198 202 204 206 214 214 226 214 194 197 171 162 143 137
239 172 191 205 222 38 280 332 222 169 179 175 200 157 159 186 220 171 161 147 160 168 169 161 163 173 174 179 182 189 196 205 212 217 220 212 209 184 174 145 133 111 104 55
260 139 151 189 150 188 318 300 169 180 149 199 176 194 214 202 195 168 146 160 162 168 167 160 162 170 187 188 185 188 190 195 198 209 193 194 177 139 122 107 101 72 14 333
240 336 194 129 109 90 28 309 153 151 184 154 160 172 250 233 249 176 161 161 158 161 168 169 168 170 173 178 183 183 189 185 164 143 137 121 116 118 139 137 246 287 288 295
191 271 299 168 170 158 111 309 338 233 165 141 150 192 212 11 51 137 145 155 159 159 166 168 172 175 176 172 168 165 156 140 129 122 114 121 145 145 183 266 176 146 277 347
114 242 295 139 196 152 138 254 295 292 21 96 144 99 301 78 77 114 133 149 156 163 155 160 160 161 158 154 148 144 140 136 136 149 162 157 165 141 145 147 212 281 5 6
353 318 32 305 115 277 170 156 94 8 14 58 58 307 216 189 162 145 145 141 149 152 156 158 160 156 153 150 147 147 149 157 160 180 180 157 161 170 185 185 124 26 359 357
81 357 309 278 50 122 120 201 51 107 108 53 94 253 22 190 172 163 164 164 164 165 166 163 159 157 157 155 154 160 169 175 188 175 158 154 161 155 148 138 91 348 343 344
146 261 227 93 27 59 275 299 211 156 186 185 247 278 9 334 174 159 160 168 174 172 168 166 165 164 164 169 177 178 181 189 171 155 153 158 157 157 171 181 310 335 335 338
71 254 164 116 36 50 173 278 40 273 77 203 155 244 20 71 123 155 151 171 178 179 175 174 172 173 177 182 183 186 184 172 162 160 161 164 175 180 198 226 294 315 338 340
204 292 343 103 7 101 179 221 213 110 101 175 247 165 166 147 147 156 164 176 172 184 182 180 181 182 185 190 190 190 182 167 169 172 174 178 185 200 209 256 306 326 333 334
350 345 11 353 338 217 197 190 155 141 199 160 249 204 192 195 185 178 175 172 169 181 186 185 189 191 193 192 192 191 179 178 179 184 191 194 200 208 242 298 310 320 320 318
327 218 136 199 4 12 302 209 182 186 256 278 238 294 194 167 161 160 179 176 179 187 190 191 198 198 199 198 199 188 184 188 189 191 199 210 210 231 266 285 301 309 310 309
319 42 64 272 14 1 339 222 194 189 193 178 217 245 136 132 170 181 191 191 189 198 199 198 202 205 207 205 205 191 190 194 195 201 208 214 224 244 270 287 293 296 296 298
318 135 6 247 16 349 246 296 210 187 233 216 229 225 240 230 219 219 214 208 208 206 206 206 206 209 212 212 201 197 199 200 202 208 212 218 237 256 270 278 286 288 292 298
333 4 67 118 194 277 294 186 145 165 273 214 223 214 205 202 174 213 224 228 230 219 214 214 208 207 211 211 201 203 203 205 208 212 216 228 246 254 264 277 284 289 298 298
306 207 12 98 134 201 238 214 201 155 292 76 180 203 173 180 267 232 263 233 226 226 222 214 210 210 212 209 207 210 211 213 212 217 224 232 244 254 269 279 289 295 295 293
165 173 189 142 244 289 247 258 313 79 246 78 44 7 187 183 240 311 311 259 230 227 224 220 215 215 215 212 209 214 217 219 219 220 226 241 247 260 274 283 287 292 289 288
168 148 189 88 64 289 173 92 164 220 131 106 60 28 181 220 253 272 264 240 222 220 221 226 219 212 214 215 215 208 213 215 220 223 238 240 250 266 274 284 288 287 288 291
243 188 185 184 212 230 207 274 225 190 162 162 325 327 311 295 261 255 246 225 220 216 217 217 213 211 211 214 217 206 213 222 222 231 239 244 256 268 278 284 289 293 295 295
264 187 226 30 276 245 252 245 238 223 255 277 289 307 315 301 271 236 234 227 217 211 213 214 208 209 213 214 218 202 218 225 228 233 238 248 259 271 281 288 293 294 293 293
219 135 191 265 287 284 278 261 253 255 262 263 270 279 289 283 252 229 231 219 214 213 210 213 213 213 216 218 208 211 220 224 228 233 244 254 266 278 285 288 290 291 295 299
197 191 170 220 283 248 301 312 264 248 254 259 258 265 280 266 237 218 212 207 212 210 210 212 210 211 210 207 212 217 223 228 233 240 250 260 270 278 282 285 289 295 299 302